CST1033 CYUL-KPVD

Flight info

Callsign CST1033
Flight time N/A
Altitude 35000
Route VIRKA DCT ENE/N0367F170 V167 SCUPP/N0362F160 V167 PVD
Aircraft A321/M-SDE3FGHIRWY/LB1

Departure

Time N/A
Airport Montreal / Pierre Elliott Trudeau International Airport (CYUL)

Arrival

Time 2026-05-03 20:29
Airport Rhode Island T. F. Green International Airport (KPVD)
Time Latitude Longitude Altitude Speed Heading
2026-05-03 20:15 42.04768 -70.77166 26821 ft 496 kts 153°
2026-05-03 20:15 42.01762 -70.74860 25687 ft 498 kts 153°
2026-05-03 20:15 41.98740 -70.72541 24540 ft 500 kts 153°
2026-05-03 20:15 41.95706 -70.70218 23447 ft 502 kts 153°
2026-05-03 20:16 41.92736 -70.67941 22623 ft 491 kts 153°
2026-05-03 20:16 41.89784 -70.65675 20939 ft 476 kts 153°
2026-05-03 20:16 41.86936 -70.63494 19241 ft 466 kts 153°
2026-05-03 20:16 41.84148 -70.61370 17578 ft 457 kts 153°
2026-05-03 20:17 41.81442 -70.59318 15845 ft 448 kts 153°
2026-05-03 20:17 41.78721 -70.57260 14999 ft 445 kts 153°
2026-05-03 20:17 41.75984 -70.55488 14507 ft 432 kts 164°
2026-05-03 20:17 41.73067 -70.54727 13772 ft 424 kts 181°
2026-05-03 20:18 41.70173 -70.55068 13027 ft 413 kts 197°
2026-05-03 20:18 41.67531 -70.56387 12370 ft 400 kts 212°
2026-05-03 20:18 41.65299 -70.58478 11770 ft 386 kts 226°
2026-05-03 20:18 41.63580 -70.61128 11319 ft 369 kts 240°
2026-05-03 20:19 41.62429 -70.64062 11194 ft 345 kts 252°
2026-05-03 20:19 41.61813 -70.67050 11052 ft 324 kts 264°
2026-05-03 20:19 41.61683 -70.69958 10931 ft 305 kts 276°
2026-05-03 20:19 41.61970 -70.72679 10802 ft 289 kts 284°
2026-05-03 20:20 41.62270 -70.75286 10667 ft 278 kts 278°
2026-05-03 20:20 41.62402 -70.77802 10423 ft 272 kts 276°
2026-05-03 20:20 41.62477 -70.80313 10075 ft 270 kts 275°
2026-05-03 20:20 41.62539 -70.82814 9713 ft 269 kts 275°
2026-05-03 20:21 41.62606 -70.85294 9198 ft 263 kts 275°
2026-05-03 20:21 41.62684 -70.87738 8763 ft 262 kts 276°
2026-05-03 20:21 41.62770 -70.90160 8396 ft 260 kts 276°
2026-05-03 20:21 41.62861 -70.92561 8048 ft 258 kts 276°
2026-05-03 20:22 41.62952 -70.94944 7695 ft 256 kts 277°
2026-05-03 20:22 41.63042 -70.97308 7353 ft 254 kts 276°
2026-05-03 20:22 41.63131 -70.99656 7004 ft 252 kts 277°
2026-05-03 20:22 41.63220 -71.01984 6655 ft 250 kts 277°
2026-05-03 20:23 41.63309 -71.04300 6335 ft 248 kts 277°
2026-05-03 20:23 41.63400 -71.06603 5983 ft 247 kts 277°
2026-05-03 20:23 41.63488 -71.08894 5642 ft 245 kts 277°
2026-05-03 20:23 41.63571 -71.11127 5310 ft 243 kts 276°
2026-05-03 20:24 41.63653 -71.13371 4985 ft 241 kts 276°
2026-05-03 20:24 41.63736 -71.15598 4660 ft 239 kts 276°
2026-05-03 20:24 41.63820 -71.17807 4334 ft 237 kts 276°
2026-05-03 20:24 41.63904 -71.20000 4012 ft 234 kts 276°
2026-05-03 20:25 41.63984 -71.22174 3696 ft 233 kts 276°
2026-05-03 20:25 41.64062 -71.24318 3380 ft 226 kts 276°
2026-05-03 20:25 41.64135 -71.26373 3101 ft 216 kts 277°
2026-05-03 20:25 41.64206 -71.28338 2807 ft 209 kts 276°
2026-05-03 20:26 41.64274 -71.30242 2492 ft 199 kts 276°
2026-05-03 20:26 41.64339 -71.32023 2249 ft 183 kts 278°
2026-05-03 20:26 41.64621 -71.33557 1970 ft 164 kts 295°
2026-05-03 20:26 41.65212 -71.34745 1748 ft 146 kts 311°
2026-05-03 20:27 41.65963 -71.35598 1563 ft 139 kts 320°
2026-05-03 20:27 41.66712 -71.36390 1389 ft 136 kts 320°
2026-05-03 20:27 41.67450 -71.37170 1195 ft 135 kts 320°
2026-05-03 20:27 41.68165 -71.37925 1000 ft 127 kts 319°
2026-05-03 20:28 41.68871 -71.38673 823 ft 131 kts 322°
2026-05-03 20:28 41.69599 -71.39442 646 ft 136 kts 319°
2026-05-03 20:28 41.70347 -71.40215 456 ft 137 kts 319°
2026-05-03 20:28 41.71083 -71.41007 273 ft 134 kts 318°
2026-05-03 20:29 41.71806 -71.41780 101 ft 134 kts 320°
2026-05-03 20:29 41.72465 -71.42479 53 ft 88 kts 321°
2026-05-03 20:29 41.72708 -71.42735 54 ft 7 kts 322°
2026-05-03 20:29 41.72756 -71.42785 55 ft 9 kts 322°
2026-05-03 20:30 41.72811 -71.42843 56 ft 10 kts 322°
2026-05-03 20:30 41.72865 -71.42898 55 ft 9 kts 322°
2026-05-03 20:30 41.72912 -71.42946 56 ft 8 kts 322°
2026-05-03 20:30 41.72918 -71.43005 56 ft 8 kts 257°
2026-05-03 20:31 41.72892 -71.43071 56 ft 9 kts 219°
2026-05-03 20:31 41.72845 -71.43123 60 ft 9 kts 221°
2026-05-03 20:31 41.72845 -71.43192 57 ft 8 kts 292°
2026-05-03 20:31 41.72875 -71.43266 60 ft 10 kts 301°
2026-05-03 20:32 41.72870 -71.43327 58 ft 7 kts 216°
2026-05-03 20:32 41.72848 -71.43342 59 ft 3 kts 200°
2026-05-03 20:32 41.72836 -71.43348 59 ft 0 kts 201°
2026-05-03 20:32 41.72833 -71.43349 57 ft 0 kts 201°
2026-05-03 20:33 41.72831 -71.43350 57 ft 1 kts 201°
2026-05-03 20:33 41.72825 -71.43354 58 ft 0 kts 201°